Starlink 5185

operational
NORAD ID: 54100 Int'l Des: 2022-136 Owner: SPXS Country: US Constellation: starlink
LEOCIRCULAR

Über Starlink 5185

Beschreibung wird geladen...

Live-Position

3D-Globus wird geladen...

Nächste Überflüge

Höhenverlauf

Altitude vs Time

uPlot chart will show altitude changes over time

Zweizeiliger Elementsatz

1 54100U 22136BB 26034.54628028 .00008254 00000-0 53598-3 0 9996
2 54100 53.2164 127.1092 0001307 92.5017 267.6125 15.08848143181832
Epoch: 3. Feb. 2026 • Age: 11 hours

Aktueller Status

Höhe 558.2 km
Geschwindigkeit 7.58 km/s
Subsatellitenpunkt -50.90°S, 73.88°W
Startdatum 20. Okt. 2022
Alter 3.2 years
Typ internet

Technische Details

Klassifizierung Payload
Masse 305.00 kg
Trockenmasse 290.00 kg
Gesamtmasse 305.00 kg
Länge 0.20 m
Durchmesser 2.80 m
Spannweite 9.00 m
Form Box + pan
Hersteller SPXS
Bus-Typ Starlink
Phasenstatus In Orbit
Besitzer/Staat SPXS/US

Große Konstellationen

Loading constellations...